Theta_e
353 355 355 355 357 357 357 358 358 358 358 359 358 358 358 359 358 359 362 360 361 362 362 363 363 361 361 362 362 362 361 360 360 360 358 358 358 357 355 353 352 351 352 351 349 349 348 347 348 347 349 346 345 345 344 347 347 345 345 344 342 343 341 339 335 335 341 343 341 340 344 344 343 345 343 344 347 348 347 348 348 346 345 344 344
353 354 355 355 355 356 356 356 357 357 357 357 358 358 358 359 360 361 360 361 362 361 362 363 363 362 362 363 363 363 362 360 358 358 357 357 357 355 354 353 352 351 351 350 350 348 348 347 346 347 348 345 345 344 343 343 344 342 343 342 341 343 344 340 338 335 334 343 342 345 344 344 341 346 344 342 343 346 346 347 346 345 344 344 343
352 355 355 356 356 356 356 356 357 357 356 356 355 356 357 359 360 360 359 359 362 361 362 362 363 364 363 362 363 363 362 359 360 357 358 357 356 354 353 352 351 350 349 349 349 349 347 347 346 346 346 344 345 344 344 344 343 343 342 344 343 342 346 344 339 336 336 337 343 339 342 344 341 343 345 345 346 346 344 345 343 344 345 344 343
352 354 354 354 355 356 356 356 355 355 354 355 355 355 356 357 359 359 359 358 360 361 363 363 364 364 362 362 362 362 361 358 358 358 358 357 356 355 353 352 351 350 349 349 348 349 347 346 346 345 346 343 345 344 345 345 345 344 343 346 345 344 346 346 344 340 338 336 342 340 342 341 343 344 345 346 344 346 345 346 345 344 345 346 345
351 352 352 352 353 354 354 355 354 354 354 354 354 355 355 356 358 358 358 358 360 361 362 363 363 363 362 363 362 361 359 359 358 358 358 357 356 355 354 353 352 351 350 350 349 350 348 347 347 347 346 344 345 344 344 345 345 344 343 345 344 345 345 345 345 344 341 338 338 344 344 343 344 344 345 342 344 345 346 344 344 344 345 344 343
350 351 351 351 353 353 354 354 353 354 354 354 354 355 355 356 357 357 358 358 360 360 361 361 362 362 363 363 363 362 361 360 359 359 357 356 356 355 354 353 351 351 351 350 350 350 349 348 348 348 346 344 344 344 345 344 345 345 344 345 345 345 346 345 346 345 343 340 341 340 345 340 343 343 345 344 340 340 343 345 346 346 344 342 341
352 351 351 350 353 354 353 354 355 354 355 355 356 356 355 356 356 357 358 358 358 359 361 361 362 362 363 363 362 363 361 359 360 360 358 357 355 355 353 353 351 351 351 350 349 349 349 348 348 347 346 346 345 345 345 344 345 345 346 346 345 345 344 344 345 344 343 341 342 342 340 342 342 339 343 343 343 341 339 338 339 344 345 343 340
352 352 352 351 353 353 354 356 357 357 357 358 358 357 357 357 358 359 359 358 358 359 360 360 362 362 362 362 363 363 361 360 361 361 359 357 355 354 353 352 351 351 350 350 349 348 348 347 346 347 347 347 346 346 346 344 345 344 345 346 345 344 342 343 344 342 341 341 339 338 340 339 341 342 343 341 340 341 341 337 334 336 339 342 342
352 352 353 353 354 356 357 358 359 359 359 359 358 358 358 359 359 360 360 359 359 360 360 360 361 360 361 362 362 361 359 359 360 359 358 357 356 354 353 352 351 350 349 349 348 348 348 347 346 346 347 345 343 343 342 341 345 343 345 346 345 344 343 343 342 342 341 340 340 341 339 338 339 340 339 339 337 336 341 339 337 338 339 338 340
353 351 351 354 357 358 359 360 360 360 359 359 360 360 359 360 360 360 361 360 360 361 361 361 360 360 359 360 361 359 357 358 347 333 338 356 356 354 353 352 352 350 349 348 347 347 346 346 346 341 340 340 341 341 337 335 336 342 347 346 345 345 344 343 342 342 341 339 338 338 337 337 338 340 338 339 341 341 338 339 335 337 337 335 336
350 350 351 354 356 359 359 359 359 359 359 360 360 360 360 360 360 360 360 360 360 361 360 359 358 359 359 358 357 357 356 354 334 330 331 335 351 355 353 352 352 350 349 348 347 346 346 346 347 344 340 338 342 337 336 333 333 334 337 339 341 346 344 342 341 342 340 338 338 339 336 337 339 341 338 337 340 338 338 339 337 335 332 328 325
349 352 354 357 359 358 358 359 359 358 359 359 360 360 360 360 360 360 359 359 360 360 359 359 360 359 358 358 358 357 356 338 330 329 329 329 334 354 354 352 351 350 349 348 348 347 346 345 346 346 345 344 344 344 340 333 330 331 332 334 334 336 338 345 344 342 341 339 338 338 338 338 339 340 337 337 338 339 339 337 336 333 330 328 328
351 352 355 356 358 359 360 359 359 359 359 359 360 360 360 360 359 359 358 360 360 359 359 358 358 358 358 357 355 356 356 337 329 327 327 327 327 339 354 353 351 349 349 348 348 348 347 346 345 345 346 339 341 345 346 344 331 328 330 332 333 332 330 332 338 345 345 343 339 339 340 339 339 339 340 339 341 338 337 334 333 332 331 329 329
352 354 357 358 359 359 359 358 358 359 360 360 360 360 359 359 359 360 360 360 359 357 357 357 358 357 357 356 356 357 357 336 327 325 325 324 326 332 353 352 352 351 350 349 348 348 348 347 347 345 345 343 343 344 346 346 345 341 339 341 341 339 332 329 330 336 342 344 342 339 343 343 340 342 343 341 339 338 335 332 333 331 330 329 331
353 355 356 358 359 359 360 359 359 360 360 360 360 359 358 359 359 359 358 358 358 357 356 356 356 357 357 357 356 356 356 332 324 323 322 321 323 327 351 352 352 352 351 350 349 348 349 348 349 347 345 343 343 343 344 344 345 344 343 341 342 343 343 340 339 339 340 340 342 342 343 344 343 343 343 343 342 341 338 335 334 333 332 333 331
354 357 357 358 358 359 359 359 360 360 360 360 359 358 359 359 359 360 359 358 358 358 357 357 357 357 357 357 356 354 356 328 323 322 320 320 321 338 348 351 351 351 351 350 350 350 349 349 348 347 347 344 336 330 337 345 345 344 344 343 343 343 343 343 334 336 343 343 343 342 342 341 337 344 343 340 341 341 338 335 335 333 328 325 322
354 357 356 356 357 359 359 359 359 359 359 359 358 358 359 359 360 360 358 357 356 356 357 357 358 357 357 356 355 354 356 336 321 319 318 318 323 343 347 350 351 351 351 351 350 350 349 349 348 347 347 346 334 324 328 337 345 344 343 343 343 343 343 343 331 329 330 328 325 325 324 323 324 322 322 324 338 334 334 330 327 324 324 321 321
354 356 355 356 357 358 359 359 359 358 359 358 358 358 359 361 360 360 358 357 355 356 357 357 358 358 356 356 355 355 356 337 317 317 317 316 326 344 347 349 350 351 351 351 351 350 348 342 343 347 346 346 326 322 324 335 343 343 343 341 340 340 342 341 337 336 324 323 323 323 323 323 323 321 320 320 320 328 330 324 324 323 321 321 316
353 354 355 357 360 360 360 360 360 359 359 359 359 359 359 360 361 360 359 359 358 359 357 356 356 356 356 356 342 350 356 338 315 317 315 314 328 348 349 350 349 350 350 350 351 350 349 343 336 341 342 339 320 321 321 331 341 343 343 341 338 338 341 340 339 337 338 337 337 335 333 328 333 333 330 320 321 327 328 327 326 322 318 317 316
356 357 357 359 359 360 359 361 361 360 360 360 361 360 361 360 360 360 359 359 357 357 357 356 356 356 356 357 356 355 355 356 330 315 314 313 318 346 351 349 348 349 350 349 348 349 348 347 338 325 325 323 317 317 317 321 339 343 344 341 339 339 342 341 340 340 340 338 336 333 332 331 332 333 332 328 326 329 330 329 326 323 320 319 318
359 360 360 357 357 360 361 360 359 361 361 361 360 360 360 360 360 360 358 358 358 357 357 356 356 356 356 356 356 356 356 357 337 313 313 313 315 327 351 350 351 350 350 349 349 347 345 345 346 326 319 318 315 313 313 315 327 344 345 343 342 344 337 340 337 336 338 337 334 333 333 332 331 328 326 327 326 327 327 327 325 324 322 319 317
358 359 359 357 357 359 359 360 361 361 361 361 361 359 360 361 360 360 359 358 357 356 357 357 356 356 356 356 357 356 349 341 347 315 314 312 314 317 344 351 350 351 350 350 349 347 346 345 346 329 316 316 314 311 311 314 320 344 345 327 323 324 340 341 339 337 337 335 333 332 330 327 324 323 323 324 324 327 325 324 324 323 323 322 320
360 359 360 358 358 359 360 361 361 361 361 362 360 359 361 360 360 361 360 358 357 357 357 357 357 356 356 356 357 357 358 352 329 327 313 312 312 314 324 339 331 351 350 349 348 347 348 347 345 322 315 312 310 310 310 313 318 336 320 315 317 323 333 339 337 336 336 335 333 331 327 324 322 322 324 324 324 326 324 325 325 325 325 324 322
360 358 359 359 360 359 360 360 362 362 362 361 360 360 360 360 360 361 361 358 356 355 355 357 356 354 353 354 356 356 358 357 329 321 321 312 312 312 315 323 327 345 351 350 350 348 346 346 340 315 311 308 308 310 311 313 328 316 310 315 318 324 339 338 335 336 335 333 330 328 326 323 323 323 324 326 324 328 327 327 328 326 325 323 323
357 357 357 357 359 360 361 362 362 362 362 362 361 360 361 361 359 360 360 358 357 355 355 355 354 353 353 352 355 358 358 358 344 325 318 313 313 312 314 318 321 324 346 350 351 348 333 324 317 310 311 309 309 310 310 313 316 310 312 315 323 336 338 337 336 336 333 331 327 327 324 324 325 326 329 329 331 331 329 326 327 325 324 323 322
355 355 356 358 359 359 359 359 361 362 362 362 362 362 361 359 358 358 358 357 356 355 354 354 353 354 352 352 354 356 357 357 349 337 324 319 317 314 315 317 320 321 333 345 333 328 320 317 312 312 312 314 319 323 326 325 315 315 314 320 336 336 337 336 336 334 332 328 325 324 323 324 325 329 332 331 327 325 327 327 324 322 320 319 318
355 355 356 356 358 358 357 355 356 358 361 361 361 361 360 360 358 357 357 356 356 354 354 355 354 353 353 353 354 355 355 353 349 343 336 332 330 327 322 324 319 320 334 344 328 332 323 323 323 318 317 315 320 320 322 319 319 321 327 333 336 337 338 337 335 334 332 327 325 324 324 325 328 329 326 326 326 327 327 325 321 319 319 318 316
356 357 355 356 356 357 357 356 354 354 356 358 357 358 360 360 359 358 357 356 355 355 355 354 353 353 353 354 354 356 351 349 347 343 339 338 336 334 330 330 331 333 338 336 334 329 327 316 315 321 320 323 327 328 327 325 326 327 332 334 335 336 336 334 335 336 333 330 327 326 326 327 324 323 323 324 323 325 325 321 319 317 316 316 314
354 356 357 357 357 355 354 354 353 354 356 359 360 361 360 360 359 360 363 362 360 357 357 356 355 357 355 355 354 351 347 345 346 331 340 329 334 335 330 330 332 336 330 322 328 326 323 323 324 323 324 325 325 325 324 325 327 330 332 333 332 332 332 332 332 331 331 329 327 326 324 322 322 323 323 322 325 324 323 321 320 318 318 315 310
348 349 350 352 352 354 356 353 353 352 352 354 357 360 346 332 347 362 360 341 334 331 332 355 359 359 357 357 358 353 349 348 330 319 319 317 317 318 319 318 318 329 318 316 324 325 325 324 324 324 325 325 325 324 324 325 326 326 327 324 330 330 330 331 331 328 328 326 326 322 322 322 322 323 322 321 325 322 320 317 318 318 315 312 311
343 343 343 344 342 346 348 349 352 354 354 353 353 352 354 357 320 316 324 332 328 319 314 317 321 328 352 360 352 333 334 327 313 313 314 311 310 309 309 310 311 310 309 322 328 328 326 325 324 325 326 326 326 326 325 325 325 325 325 326 329 328 328 330 328 326 324 324 324 322 324 322 322 322 322 321 322 320 317 315 316 316 312 311 310
341 341 343 345 344 346 346 345 346 347 347 349 351 351 351 352 356 328 316 317 316 309 310 311 313 314 319 333 344 354 327 313 309 310 310 308 306 306 306 307 307 306 308 317 330 328 328 326 325 325 326 326 326 327 327 327 326 326 325 325 328 329 329 329 327 327 324 324 323 322 323 322 322 323 322 322 320 318 316 313 313 312 312 311 310
340 340 339 340 341 341 341 343 343 344 343 343 343 344 344 345 348 351 353 315 310 311 309 306 306 308 311 312 319 326 319 310 308 308 307 306 305 305 306 306 304 304 310 325 329 327 327 327 326 326 326 326 327 327 328 329 328 329 328 328 327 328 329 330 328 327 325 325 323 322 323 323 322 322 320 320 317 317 315 313 313 312 311 309 309
342 342 340 340 340 339 339 339 338 338 340 340 340 340 342 343 342 342 343 348 349 324 309 304 303 306 307 309 313 312 308 306 308 307 306 305 304 304 304 307 302 304 316 329 327 326 327 327 326 326 327 328 328 328 329 330 331 330 329 330 331 330 329 329 327 326 324 324 324 323 323 323 322 322 320 319 316 315 313 311 312 311 310 309 308
342 340 337 337 339 338 337 336 335 335 334 334 335 335 336 337 338 339 340 340 342 343 345 342 315 302 315 311 308 308 306 306 307 306 304 303 303 302 304 311 311 317 325 329 327 328 327 327 326 326 328 328 329 329 331 332 330 329 330 331 330 329 327 326 325 326 325 325 324 324 324 323 324 323 319 317 314 312 312 311 311 310 309 309 308
341 341 339 338 338 337 336 335 334 334 333 333 334 333 333 334 334 336 335 334 334 335 337 342 343 319 306 308 309 307 305 305 305 303 302 301 301 304 316 318 321 324 327 327 327 327 328 328 328 327 329 330 331 332 331 330 330 331 331 331 328 328 328 326 325 326 327 326 325 325 322 325 323 320 317 315 314 312 312 311 310 309 309 308 308
340 339 339 338 338 338 337 336 335 333 331 332 335 334 333 334 333 331 329 328 328 327 328 332 335 332 317 316 312 306 305 304 303 302 300 300 303 317 324 324 325 327 327 327 327 327 327 326 326 327 328 329 329 330 330 331 331 331 325 331 330 328 328 327 326 327 327 326 326 325 325 324 320 317 314 313 312 312 311 311 309 308 308 307 306
338 338 339 338 339 339 338 337 334 331 333 333 334 333 333 332 332 333 332 332 328 325 321 320 317 321 321 320 318 313 309 304 301 300 300 301 312 325 326 327 328 328 329 329 328 327 327 327 328 329 330 331 331 331 331 331 330 330 329 330 330 329 322 325 324 329 329 327 325 325 322 318 317 315 313 313 312 311 310 310 309 308 308 307 306
337 326 323 325 329 338 339 337 335 335 334 333 332 332 331 332 334 335 334 334 331 328 325 321 317 315 310 308 307 308 306 305 305 306 309 317 325 327 327 327 328 329 329 328 327 327 327 326 328 330 330 330 331 331 331 330 330 329 330 329 328 326 323 326 326 328 325 324 322 321 318 316 315 315 314 313 312 312 311 310 309 308 307 307 307
337 338 332 326 335 335 336 335 335 335 334 334 333 332 331 331 331 332 332 332 330 328 327 322 317 315 314 312 312 312 312 310 311 313 318 323 325 326 326 326 327 327 327 327 327 327 326 326 327 328 329 330 330 330 330 329 329 328 327 326 325 324 324 325 324 323 322 321 319 317 316 316 316 315 314 313 312 312 311 310 309 308 308 307 307
337 337 335 330 328 336 338 336 335 334 335 334 334 333 331 331 331 330 330 329 329 327 327 324 318 316 314 310 307 309 316 316 318 323 324 324 324 325 325 326 326 326 327 327 327 327 326 326 327 328 329 329 329 328 328 327 326 326 325 324 324 323 323 323 323 321 320 319 318 316 316 316 316 315 313 313 310 311 311 311 309 309 308 308 307
336 336 336 336 335 337 336 334 334 335 334 334 333 332 333 332 331 330 328 327 325 324 322 319 317 316 310 306 303 307 319 320 322 322 323 323 324 324 325 326 327 327 327 327 327 326 326 325 325 326 327 328 328 327 326 325 325 325 324 324 322 322 321 321 321 321 320 318 317 317 317 317 316 314 313 309 313 312 312 310 310 308 308 307 307
335 335 336 336 335 334 333 334 335 335 334 334 332 330 330 331 331 330 328 326 324 321 318 318 317 317 314 308 310 311 320 321 323 321 322 323 323 324 325 326 327 327 328 329 329 327 326 325 325 327 328 327 327 326 325 325 325 324 323 322 322 321 321 320 320 319 318 318 317 317 317 316 314 315 314 313 312 312 311 310 309 308 308 308 307
333 333 334 333 333 333 333 334 333 333 333 331 331 331 332 332 331 330 329 327 325 323 321 319 319 319 319 317 315 318 320 320 321 321 321 322 323 323 324 325 326 327 327 328 327 326 325 324 324 326 327 327 327 326 326 326 325 324 323 322 321 320 321 320 319 318 317 317 316 317 316 316 315 315 313 312 313 312 310 310 309 308 307 307 307
332 332 332 333 333 333 333 334 332 333 332 332 332 331 331 332 329 328 328 327 325 324 322 320 319 319 321 323 323 322 321 321 321 321 322 322 322 323 323 324 324 325 326 326 325 325 324 324 325 325 325 325 326 326 326 325 326 325 324 323 322 320 320 319 319 319 319 318 317 316 316 316 315 315 314 313 312 311 309 309 308 308 306 306 305
329 330 330 330 329 329 331 332 331 332 331 331 330 330 330 329 329 328 327 326 326 324 323 322 320 320 321 323 324 323 323 323 323 323 322 323 323 323 323 324 324 325 325 325 325 325 325 325 325 325 325 324 325 325 326 326 326 326 326 325 323 322 321 321 321 321 320 320 318 317 316 316 316 315 315 314 312 310 309 309 309 308 307 305 305
328 328 327 328 327 326 327 329 329 329 329 328 329 328 328 327 327 326 325 325 324 323 322 321 321 320 321 322 323 324 324 324 323 322 322 321 321 321 322 322 323 324 324 325 325 325 325 325 325 325 325 325 325 325 324 324 325 325 326 325 324 323 323 323 323 322 321 321 320 318 317 316 315 314 312 311 311 310 309 309 308 307 306 305 305
327 326 326 326 326 325 326 326 326 326 327 327 328 327 326 326 325 324 324 322 321 320 320 319 319 319 319 320 322 323 324 322 321 321 320 321 321 321 321 322 322 323 323 323 324 325 325 325 326 326 325 324 324 324 324 324 325 325 325 326 326 324 321 316 325 323 322 321 321 319 318 316 315 314 313 312 311 310 308 307 307 306 306 305 304
326 326 326 325 325 325 325 325 325 325 325 326 326 326 326 325 324 325 324 323 321 321 321 319 318 318 318 320 321 322 322 323 323 323 322 322 322 323 323 323 323 323 324 324 324 324 325 325 325 326 325 325 325 324 324 324 324 324 324 324 320 306 303 306 315 322 314 320 319 318 318 316 315 313 312 311 309 309 308 307 306 305 305 305 305
321 321 321 322 323 324 326 326 326 325 325 325 325 324 324 324 322 321 321 320 319 317 317 317 317 320 321 320 320 322 321 321 320 321 321 321 322 323 323 324 324 324 324 324 324 325 325 325 325 325 326 326 325 325 324 323 324 323 323 324 302 297 298 301 305 304 313 319 317 316 314 313 313 311 310 310 309 308 306 305 305 304 305 304 304
320 318 318 318 319 320 320 321 323 324 324 324 324 324 323 322 321 320 321 319 318 318 317 317 317 320 322 321 320 320 320 320 321 320 322 321 321 321 321 323 323 324 324 324 324 324 324 324 325 325 326 325 325 324 324 323 324 323 312 300 295 295 295 299 309 297 301 308 315 312 311 310 310 308 307 306 306 306 304 305 304 304 304 303 304
Wind_Speed
19 17 16 17 17 18 17 17 18 15 16 16 15 15 14 14 13 13 11 12 12 13 13 13 13 13 13 12 12 12 12 13 12 12 12 12 9 9 9 10 10 8 7 7 7 6 7 7 7 7 6 6 5 5 5 4 4 4 4 4 4 4 4 4 5 5 2 2 2 1 2 2 3 3 3 3 4 3 3 2 2 2 1 2 1
18 17 17 17 20 19 19 17 17 16 17 16 16 15 14 14 13 12 13 13 13 14 14 13 13 13 13 13 13 12 12 13 13 12 13 11 11 8 9 10 10 9 8 9 8 6 7 8 8 7 7 7 6 6 6 6 6 5 5 5 4 4 4 4 4 4 5 2 3 3 3 4 3 3 4 4 3 3 3 2 2 1 1 2 2
20 17 18 17 19 18 18 17 17 19 19 17 18 17 15 15 14 14 14 13 13 14 14 14 13 14 13 13 14 12 13 13 13 14 12 11 12 11 10 11 11 11 10 10 9 8 8 8 9 7 6 7 7 7 7 7 7 7 6 5 5 5 5 5 5 5 6 5 2 3 2 3 3 4 5 3 2 2 2 3 2 1 1 1 2
18 18 17 18 19 18 18 17 20 20 20 18 19 19 17 16 15 15 15 14 14 14 14 14 14 14 14 14 16 13 13 14 14 14 12 12 12 12 11 11 11 12 11 10 10 9 10 9 9 9 8 8 8 7 7 7 7 7 7 6 6 6 5 6 6 5 5 6 4 4 2 3 3 3 3 3 4 4 3 2 2 2 2 3 2
18 19 20 21 20 19 21 20 20 21 20 18 20 20 19 17 15 17 16 15 15 13 13 14 14 14 14 15 15 14 16 15 15 14 12 11 12 12 12 11 12 12 12 11 11 11 10 11 10 10 9 9 8 9 8 10 8 8 8 7 6 6 5 5 6 6 6 7 6 4 3 3 3 3 4 4 4 4 3 3 3 3 3 3 2
19 19 20 20 19 22 21 21 22 22 21 20 21 20 19 18 17 16 17 17 16 15 15 14 14 15 15 14 14 16 16 16 16 13 13 13 12 12 11 12 12 12 12 11 11 11 11 11 10 11 10 10 10 9 9 11 9 9 9 8 7 6 6 6 5 6 6 7 6 5 4 5 4 4 3 3 4 3 3 3 4 4 2 2 2
18 19 20 21 19 21 21 21 19 20 20 19 18 18 19 19 18 18 17 18 17 16 15 15 13 15 15 14 14 14 15 17 14 12 13 13 13 13 13 12 12 11 11 12 12 12 11 11 11 11 12 11 11 11 10 11 10 11 10 9 8 7 7 7 6 7 7 7 7 6 6 4 4 4 3 3 3 3 4 4 4 2 2 2 3
18 18 18 19 19 20 20 19 18 18 18 17 17 18 18 18 18 16 16 18 18 17 17 16 14 14 14 14 14 13 16 15 13 13 13 13 13 13 13 13 12 11 11 12 12 12 12 12 13 12 12 12 12 12 11 10 9 9 8 8 8 8 7 7 7 7 7 7 7 7 5 5 4 3 2 3 4 4 3 3 5 5 5 3 3
18 18 17 18 18 18 16 16 16 17 17 16 17 17 17 17 16 15 15 16 15 17 17 16 16 15 15 14 14 15 16 14 12 13 13 14 13 14 14 13 12 12 11 12 11 12 12 12 13 13 13 14 16 13 12 10 8 9 8 8 8 8 8 7 7 7 6 6 7 6 6 5 5 4 4 4 4 4 2 2 4 4 5 6 3
16 18 19 19 16 15 15 14 15 16 16 17 17 17 16 16 16 16 15 16 15 15 16 16 16 16 16 15 15 15 16 15 14 19 16 13 14 12 11 12 12 11 11 11 11 12 13 13 11 14 15 16 16 16 13 12 11 10 8 9 9 8 8 8 8 7 6 7 7 7 7 6 5 5 4 4 3 3 3 3 5 4 5 6 6
17 19 20 18 15 14 14 15 15 16 17 16 16 17 17 15 16 16 16 16 16 15 16 17 17 16 17 16 18 16 17 16 18 19 20 19 14 13 12 12 12 12 12 12 12 12 12 13 11 12 14 13 14 15 13 13 13 14 12 11 11 10 9 9 8 7 7 7 7 7 7 7 5 3 4 3 3 3 2 3 4 4 5 7 8
20 19 18 13 13 15 15 16 16 17 16 17 16 16 16 16 16 17 16 17 16 16 18 17 16 16 16 18 17 16 18 17 18 21 21 21 17 12 11 11 11 12 12 13 11 11 12 11 10 9 11 13 12 12 12 14 15 15 14 13 13 13 11 9 8 8 8 8 7 7 7 6 4 4 4 3 3 3 3 3 4 5 6 7 6
19 18 14 15 16 15 14 15 16 16 17 16 15 15 16 16 17 17 18 17 17 18 19 19 19 18 18 19 21 19 17 18 20 21 21 21 20 16 11 12 12 12 13 13 13 12 10 10 9 9 8 13 11 11 11 12 14 16 15 14 13 14 14 13 11 9 7 8 8 7 7 5 5 5 4 3 2 3 3 5 4 5 6 6 6
16 15 13 14 14 15 16 17 17 17 16 15 16 16 17 18 18 17 16 17 17 20 21 21 18 21 21 22 19 19 19 17 21 21 21 21 20 18 12 13 13 13 13 13 12 13 12 11 10 9 9 11 11 12 11 11 11 11 11 10 10 12 13 13 11 7 5 6 7 7 5 5 5 3 5 4 4 4 4 4 4 5 5 7 7
14 13 13 13 13 14 16 16 16 16 16 16 16 17 18 17 18 17 18 19 20 21 20 21 21 20 21 19 18 19 17 18 21 22 21 21 21 18 14 12 12 12 12 13 13 13 13 11 11 11 10 11 11 13 12 12 11 10 11 12 12 11 11 11 11 10 9 8 7 7 5 5 4 4 4 3 4 3 3 3 4 4 5 5 5
12 10 11 12 14 14 15 14 13 13 15 15 16 18 17 17 18 17 16 18 18 17 19 20 21 21 21 21 21 21 18 18 21 22 22 21 21 14 15 13 13 12 12 13 13 12 12 12 11 11 10 12 13 16 13 10 11 11 11 12 11 11 10 8 8 9 8 8 7 7 6 4 4 4 3 3 4 3 2 3 3 3 3 4 5
13 13 13 14 14 13 13 14 14 15 16 17 18 18 18 18 16 16 19 18 18 20 20 19 18 19 20 22 22 21 19 16 22 22 22 23 18 13 14 13 13 13 13 13 13 12 12 13 13 11 11 11 14 17 15 12 10 11 11 11 10 9 8 5 5 5 3 5 8 9 9 9 7 6 5 3 2 1 3 3 4 4 3 4 3
15 15 16 16 16 16 17 18 18 18 18 20 21 20 19 16 18 17 18 20 21 20 19 19 19 19 21 23 23 22 19 15 22 22 24 24 22 15 13 14 16 14 12 12 11 11 13 17 15 12 12 11 15 18 17 14 11 10 11 11 12 11 8 7 6 4 7 7 7 7 8 8 7 6 6 6 5 3 4 4 2 2 3 3 3
16 17 17 16 16 16 16 16 17 17 17 18 17 17 17 16 15 15 17 17 17 16 17 19 20 19 21 23 22 23 19 16 22 22 25 24 21 14 13 14 15 17 13 13 12 10 10 14 18 15 13 12 18 18 18 15 12 11 11 11 13 12 10 10 9 9 9 8 7 7 5 6 6 6 5 7 6 7 6 4 2 3 2 3 3
15 12 11 12 12 11 12 13 15 15 17 16 14 15 13 13 15 16 17 16 16 19 18 19 22 21 20 20 17 21 22 13 18 24 24 24 25 15 12 14 19 20 16 14 14 10 10 10 15 18 16 15 18 19 19 17 13 12 12 11 11 11 9 11 10 10 10 9 9 8 8 8 7 5 6 6 6 8 6 5 4 2 2 3 3
6 7 8 11 12 12 11 14 16 16 16 14 15 14 14 15 15 16 19 18 17 16 18 21 21 20 20 20 21 23 19 17 16 25 24 25 26 22 14 16 15 15 17 13 13 11 13 12 11 17 19 18 19 20 19 19 16 12 12 10 11 9 11 10 11 11 10 9 9 8 7 6 6 5 6 6 7 7 6 6 4 3 3 3 4
9 9 12 13 13 13 13 14 14 13 14 13 14 15 15 14 14 15 15 15 19 19 18 16 17 18 18 19 20 21 20 22 13 23 25 26 27 30 18 17 17 14 14 14 13 11 12 13 14 15 21 18 19 20 20 20 19 11 12 11 12 15 11 9 10 9 8 8 8 8 8 7 7 6 6 6 6 6 6 6 5 4 4 3 3
9 10 11 13 13 15 15 16 14 12 13 15 16 15 13 15 16 14 15 18 18 16 15 16 16 15 15 15 15 18 18 16 19 18 25 27 28 28 27 18 19 15 14 15 15 14 14 15 14 16 21 19 19 20 20 20 16 11 13 14 15 16 12 9 9 10 11 10 9 8 8 7 7 7 7 6 6 6 5 5 5 5 5 4 4
7 9 10 10 11 12 12 14 13 13 15 15 15 15 15 15 15 13 14 15 16 18 17 15 16 15 16 15 16 18 17 13 18 25 23 28 27 28 28 24 20 16 15 13 11 14 14 13 11 17 19 18 19 19 18 16 13 15 15 16 16 14 10 10 9 11 11 10 8 8 8 7 7 7 7 7 6 6 5 4 5 5 5 4 4
7 8 10 10 10 10 10 10 12 13 13 14 14 14 16 15 14 14 15 17 19 18 19 18 17 15 15 16 15 13 13 15 10 18 26 26 27 28 28 28 22 21 16 13 12 12 12 16 17 20 19 18 18 15 14 17 17 17 17 17 15 10 10 10 11 12 10 9 9 8 8 8 7 7 7 6 5 5 4 5 5 4 4 4 4
6 8 8 8 9 9 10 11 11 12 13 12 13 12 13 14 16 17 18 17 18 21 19 19 20 18 17 15 14 12 13 12 8 11 16 21 21 25 28 27 24 21 20 13 15 14 16 17 19 19 18 15 10 8 7 10 15 18 18 16 11 10 10 11 11 12 11 9 9 8 8 8 7 7 7 6 6 6 6 5 5 5 4 3 3
3 4 6 6 7 8 10 10 10 11 13 13 13 13 13 14 16 16 17 18 18 19 20 17 17 19 16 18 17 14 11 9 10 10 10 11 11 15 18 18 22 18 15 7 9 9 14 14 13 14 11 14 11 8 7 13 11 11 9 11 11 10 11 10 11 11 9 9 8 8 8 8 7 7 6 6 6 5 4 4 4 3 3 2 2
2 0 3 3 4 5 6 7 9 10 12 13 14 14 14 14 15 16 18 20 20 19 18 18 18 18 18 17 14 8 12 12 11 13 13 12 11 11 12 12 13 11 11 9 10 11 10 10 12 8 8 8 8 7 8 8 9 11 11 11 12 11 9 9 9 8 7 7 7 7 7 7 7 7 7 6 6 5 4 4 3 2 2 2 3
5 4 2 1 2 3 4 5 7 8 9 9 11 11 12 14 15 15 16 16 17 19 19 19 19 20 20 17 13 12 12 14 17 18 20 23 18 12 12 13 12 13 15 17 14 11 12 11 9 10 8 8 8 8 9 9 10 11 13 13 11 8 8 9 10 8 7 7 7 8 8 8 8 7 7 6 5 5 5 4 3 3 3 3 5
8 7 6 5 5 3 2 4 6 6 8 8 9 10 11 12 11 13 14 17 21 20 18 18 19 17 18 20 18 17 17 20 21 23 26 29 27 26 24 19 17 14 18 25 19 15 14 13 12 12 13 12 10 10 10 10 10 10 10 10 12 9 9 9 9 8 7 7 7 8 9 9 8 7 7 6 5 5 5 5 4 4 4 4 5
7 7 6 5 4 4 4 3 4 5 6 8 9 9 9 11 16 18 16 13 11 17 20 21 19 16 15 15 18 23 24 17 17 25 25 22 22 22 23 23 25 23 25 19 15 16 15 15 15 13 13 12 11 12 11 11 11 11 10 11 11 9 10 9 9 8 8 8 8 8 8 8 8 8 7 6 6 6 6 5 4 4 4 4 4
7 6 5 3 3 2 2 2 3 3 4 5 7 9 10 11 9 12 19 20 16 15 17 20 22 22 21 21 15 13 18 19 23 24 25 24 24 23 22 24 25 28 28 27 17 14 13 14 14 14 14 13 13 11 11 11 11 12 11 11 11 12 11 10 9 8 8 8 8 8 8 8 7 7 7 6 6 6 6 6 5 5 4 4 4
8 7 5 5 4 3 2 2 1 1 2 3 4 4 6 7 9 11 10 12 17 18 16 15 17 20 21 21 24 21 19 19 25 26 26 28 29 30 31 29 26 26 26 18 15 15 12 11 13 13 14 14 13 13 13 13 12 11 11 13 12 12 10 8 9 8 8 8 8 8 8 7 7 6 6 6 7 6 6 5 5 4 4 4 5
6 5 4 4 3 3 2 2 3 3 4 5 6 6 6 7 8 8 10 10 9 10 12 13 15 18 20 22 22 19 19 23 26 27 27 26 25 24 24 21 25 24 20 11 12 11 11 11 10 11 12 13 13 14 14 13 13 14 12 10 10 10 9 8 8 8 7 8 8 8 8 7 7 7 7 7 6 5 5 5 4 4 4 4 4
6 7 8 5 4 3 3 3 4 5 5 6 7 7 8 9 9 9 9 9 10 11 10 10 11 15 17 17 19 19 22 26 28 27 28 27 29 28 26 21 19 15 13 12 12 13 13 12 11 12 13 13 14 14 14 15 14 12 10 10 9 9 9 9 8 8 8 8 8 7 7 7 7 7 7 7 7 6 5 5 4 4 4 4 4
6 5 5 5 4 4 3 3 3 3 4 5 5 6 8 8 8 8 8 8 9 10 12 12 11 12 20 21 24 25 27 27 27 28 27 28 28 30 19 17 20 16 13 11 11 11 11 11 10 10 11 12 13 15 15 12 11 9 9 9 9 9 9 9 8 8 8 8 8 7 7 7 7 8 7 7 7 6 5 5 4 4 4 4 3
5 5 4 4 3 3 3 3 3 4 3 5 5 5 5 5 4 3 1 3 4 6 9 12 11 11 9 10 17 25 29 28 30 28 27 28 32 25 20 22 20 19 18 16 15 14 14 13 12 11 9 10 13 12 10 9 9 8 8 8 8 9 9 8 8 8 8 7 7 7 8 8 8 8 7 7 6 6 5 5 5 4 5 2 2
5 4 3 3 2 2 3 3 3 2 4 5 5 5 5 3 1 3 3 3 3 3 5 6 7 9 9 9 9 8 18 29 25 23 25 24 23 16 17 16 17 15 14 14 16 16 16 14 12 12 10 9 9 9 9 9 9 9 9 8 8 7 9 9 9 8 7 7 7 7 8 8 8 7 7 6 6 6 5 5 5 5 5 6 5
3 4 6 6 4 3 2 4 3 4 5 5 6 6 6 6 5 4 5 4 5 4 4 5 4 4 5 5 5 6 5 7 14 24 18 16 17 15 14 13 12 11 10 10 11 11 12 12 10 9 8 8 8 8 9 8 8 8 8 8 8 8 8 7 7 7 8 7 7 8 8 7 7 7 7 7 6 6 5 6 6 5 4 3 3
5 3 4 8 4 3 4 4 4 4 5 5 5 5 6 6 5 6 6 6 7 7 2 6 6 4 2 1 0 3 3 9 10 15 18 24 21 17 15 13 11 10 10 10 10 11 11 11 10 8 8 8 9 8 8 8 8 8 8 8 8 8 9 8 8 8 8 8 8 8 8 8 7 7 7 6 6 6 6 6 6 5 4 3 3
5 4 4 5 6 5 3 4 5 5 5 5 5 5 5 4 4 5 5 5 6 8 9 7 8 8 10 8 9 7 7 3 6 16 8 5 15 17 16 13 11 9 8 9 9 10 10 9 9 9 8 9 8 8 8 8 8 8 8 8 8 9 9 9 9 8 8 8 8 8 8 8 7 7 7 6 6 5 5 5 5 5 5 4 4
5 5 5 5 6 5 4 5 5 5 5 6 6 5 4 4 4 5 6 6 7 6 8 8 5 2 5 16 12 18 14 6 8 12 12 8 10 13 13 12 9 8 8 9 10 9 9 10 9 8 9 9 9 8 8 8 8 9 9 10 10 10 9 9 8 8 9 8 8 8 8 8 7 7 6 6 6 6 6 6 6 5 5 4 4
6 5 5 5 5 5 5 5 5 5 5 5 5 5 4 4 4 3 5 6 6 7 8 7 7 7 8 10 11 15 11 9 7 6 7 10 10 10 10 9 9 8 7 7 7 9 10 8 7 8 9 9 9 9 9 9 9 10 10 10 10 10 9 9 8 8 8 8 8 8 8 7 7 6 6 7 7 6 6 6 6 6 5 5 4
6 5 5 4 4 4 4 4 5 5 5 6 6 6 5 4 4 4 4 5 5 6 7 8 8 7 8 9 8 7 8 8 7 7 8 9 10 9 8 8 7 7 6 7 8 8 9 7 7 7 7 7 7 8 8 8 9 10 10 10 10 10 9 9 9 9 9 8 8 8 8 7 7 6 7 7 7 7 6 7 7 6 6 5 4
7 6 6 6 6 6 6 6 6 5 5 5 6 6 6 5 4 3 3 5 5 5 6 6 7 7 7 6 6 6 6 6 7 8 8 9 9 8 7 7 7 7 7 7 7 8 8 7 8 8 8 7 7 8 8 8 9 9 10 11 10 10 9 9 9 9 9 9 8 8 8 7 7 7 7 7 7 7 7 7 7 6 6 5 5
9 8 8 8 8 8 8 7 7 7 7 7 7 7 7 6 6 4 4 4 4 4 4 4 4 5 5 5 4 5 5 6 6 7 7 7 7 7 7 7 7 6 6 6 7 7 7 8 8 8 8 8 9 8 8 8 8 9 9 9 9 10 9 9 9 9 9 9 9 8 8 8 8 8 7 7 7 7 7 7 6 6 6 5 5
11 11 10 10 10 9 9 8 8 8 7 7 7 7 6 7 6 5 6 6 5 4 4 3 3 4 5 5 5 4 4 5 6 7 7 7 7 7 8 7 7 7 6 6 7 8 8 8 8 8 9 9 9 9 9 9 8 9 8 9 9 9 9 8 8 8 8 8 8 7 7 7 7 7 7 7 6 7 7 7 6 6 5 5 4
12 11 11 10 11 11 11 10 10 10 9 8 7 7 7 7 6 6 5 5 5 5 4 4 3 4 4 4 4 4 4 3 5 7 7 7 7 7 8 7 7 7 8 7 6 7 8 8 8 8 9 9 9 9 8 8 8 8 7 8 8 8 9 9 7 7 6 6 6 6 6 7 6 6 6 7 7 7 7 6 6 6 5 5 5
9 10 10 11 11 11 11 11 10 10 10 10 9 9 6 7 7 6 6 5 4 3 3 4 4 4 3 3 3 2 4 4 3 5 6 6 7 6 7 7 7 7 8 7 7 7 8 7 8 8 8 8 8 8 8 8 8 8 7 7 8 13 14 12 7 7 7 6 5 5 5 6 5 6 6 7 7 7 6 6 5 5 5 5 5
9 9 10 10 10 10 10 10 10 10 10 9 9 8 7 6 7 7 6 6 6 6 5 4 6 2 1 3 2 2 2 3 4 5 6 6 6 5 6 6 6 6 7 7 7 7 7 7 7 7 7 8 8 8 8 8 8 8 8 8 13 14 13 12 9 12 9 5 6 5 6 5 6 6 6 7 7 7 6 6 5 5 5 5 6
10 10 9 9 9 9 10 10 9 10 10 10 10 10 9 8 8 8 5 5 5 5 4 4 3 3 3 3 2 2 3 4 4 5 4 5 5 7 7 7 5 3 5 6 7 7 6 7 7 7 7 7 8 8 7 7 8 8 10 15 16 14 14 12 9 10 10 7 6 6 6 6 7 7 7 6 6 6 5 5 5 6 6 6 6
Wind_Direction
194 195 193 199 197 196 196 197 200 200 202 200 201 203 201 201 200 201 193 197 194 195 198 199 198 202 207 209 207 201 205 210 208 213 214 213 205 200 195 190 197 203 202 195 196 192 204 212 212 208 204 207 208 207 199 180 183 188 181 186 190 183 199 217 256 271 243 177 213 250 155 217 212 223 232 205 188 175 204 188 194 228 301 310 320
195 193 193 196 198 197 200 201 202 204 205 204 202 201 200 198 197 195 198 196 192 196 197 199 199 200 204 208 207 203 201 207 208 209 211 201 200 196 200 193 195 202 198 200 191 194 198 209 212 203 197 207 208 209 205 197 193 194 188 195 197 191 194 227 236 257 278 200 219 175 185 190 216 197 216 215 199 188 207 184 208 239 337 317 299
194 188 189 192 195 197 198 200 198 200 203 204 204 203 202 200 196 198 201 200 197 199 198 199 197 198 202 206 210 202 201 207 207 208 200 192 198 201 201 196 195 197 197 197 195 193 199 207 210 200 188 202 206 212 207 204 203 205 199 196 207 208 189 206 229 247 259 270 248 252 199 186 230 184 201 215 210 214 214 207 215 202 233 250 280
192 186 188 196 195 194 197 200 201 202 204 206 206 206 205 202 198 201 201 203 199 198 198 198 197 198 203 207 212 199 203 210 209 205 193 192 199 201 200 198 197 197 196 193 196 197 201 205 210 201 193 202 203 203 203 202 200 201 202 194 202 209 197 199 218 239 255 271 236 250 227 237 209 200 203 215 227 203 214 197 209 241 248 219 222
194 191 191 195 196 198 200 200 202 204 205 205 206 206 206 205 202 201 201 204 202 195 197 198 199 200 204 206 208 207 213 211 208 202 193 195 199 202 201 199 199 198 196 193 197 198 199 206 204 196 195 204 203 203 200 199 200 199 203 194 196 201 197 200 208 216 237 247 254 232 222 230 235 227 217 238 223 222 209 217 231 248 242 270 259
196 192 190 194 196 198 199 201 204 203 202 204 205 205 204 204 201 199 200 202 200 198 195 197 200 202 205 206 206 207 210 211 208 196 195 196 199 205 203 201 201 198 196 198 200 201 203 204 202 197 199 204 208 201 196 198 196 199 199 194 192 193 200 202 204 212 225 239 246 251 216 227 217 225 200 231 266 272 257 237 226 217 255 298 330
193 192 190 194 196 198 198 199 199 200 199 200 202 202 203 203 202 201 199 201 199 198 198 199 201 203 204 204 205 202 204 211 205 196 196 195 198 202 205 203 202 199 200 202 203 203 205 204 202 201 202 205 208 200 193 195 199 200 195 195 190 190 199 204 202 212 217 229 234 239 252 235 231 251 188 198 235 261 281 287 277 219 239 319 310
189 188 189 194 197 197 198 194 194 196 196 196 198 199 199 201 202 201 198 199 201 199 199 199 201 202 203 205 206 203 210 207 200 199 197 196 197 200 202 203 202 200 200 202 204 206 206 208 209 204 202 205 207 205 191 190 192 197 194 193 191 194 203 204 206 213 221 227 238 250 246 257 232 220 183 203 235 224 221 274 295 307 311 302 275
186 184 188 194 198 194 188 189 190 189 190 192 193 195 196 196 197 198 197 197 200 201 201 200 202 202 203 204 205 208 215 209 201 199 198 200 199 199 201 202 200 199 198 201 203 205 208 211 212 209 201 204 204 204 196 187 184 195 194 191 193 196 202 209 211 214 221 229 238 241 247 247 248 234 219 225 237 276 199 232 275 288 299 298 301
183 194 196 199 193 183 179 185 188 187 190 194 192 192 194 193 193 195 195 195 197 198 201 203 204 202 201 203 207 211 219 221 205 197 198 198 196 199 198 201 200 198 194 198 201 204 209 214 211 204 200 203 208 209 204 197 200 207 194 191 196 197 201 208 211 215 220 228 238 247 250 243 236 215 233 233 229 218 217 222 275 288 288 292 295
189 198 205 201 189 181 184 195 192 193 196 195 195 195 195 194 197 199 200 199 200 198 200 204 205 206 205 205 211 213 219 222 201 195 201 202 196 194 193 195 197 197 197 196 201 204 212 215 216 201 204 206 210 205 200 193 202 213 209 197 198 198 204 208 216 213 214 231 241 245 250 256 249 207 230 242 211 222 258 277 280 278 287 304 306
196 199 203 182 176 181 190 190 191 195 192 195 193 193 195 197 200 201 201 203 200 201 205 203 204 207 211 212 210 210 220 215 195 195 199 202 202 199 197 197 195 198 200 202 203 205 209 210 206 204 202 207 206 197 195 195 204 210 213 207 202 206 207 206 210 211 213 227 236 239 243 241 238 210 226 222 210 207 231 271 270 292 297 293 294
196 201 196 185 188 187 187 188 193 193 193 192 190 190 195 198 201 201 203 201 202 206 209 210 211 211 213 216 222 218 216 209 195 194 197 200 201 203 205 200 196 198 200 201 203 205 206 203 200 200 201 187 191 196 195 199 204 209 215 214 208 205 211 217 219 228 217 218 234 236 229 233 226 221 211 186 168 249 270 262 267 271 283 289 292
197 195 186 184 185 186 188 191 194 193 188 186 187 191 195 201 202 204 203 204 206 212 210 211 211 216 216 218 220 220 217 204 191 191 195 197 197 199 210 201 201 199 198 198 201 204 202 199 197 198 195 183 194 195 197 202 200 204 213 216 216 210 214 218 224 229 233 227 224 234 220 202 218 192 152 168 198 236 251 268 283 281 280 290 308
205 200 193 192 187 188 191 192 192 188 185 185 187 193 197 201 202 203 208 209 212 214 212 213 215 215 216 215 218 221 220 200 187 189 193 192 193 195 208 207 203 201 199 201 202 202 200 201 202 202 190 187 188 190 195 197 198 201 206 211 215 215 207 210 213 213 211 215 211 223 219 197 203 174 168 198 207 226 261 282 284 290 293 293 275
207 194 192 192 192 192 191 191 189 187 186 189 193 198 199 199 200 200 206 212 215 216 217 216 216 216 216 217 220 224 221 192 187 188 189 189 185 193 205 209 206 202 202 202 202 202 200 200 204 201 192 188 183 184 192 192 196 201 202 209 212 211 208 200 198 205 207 203 205 212 211 166 152 174 172 193 194 182 176 214 228 228 250 275 286
196 190 195 194 193 186 188 189 190 189 189 192 197 199 200 201 200 201 207 209 211 214 217 215 218 217 215 216 218 223 224 193 186 186 185 183 178 197 202 209 212 206 206 203 201 200 197 199 203 201 193 192 177 181 189 191 200 202 206 208 211 202 193 142 127 174 147 101 90 82 95 118 133 118 113 75 46 127 200 218 241 238 240 271 277
196 192 195 191 184 182 187 189 190 190 190 194 197 200 200 199 198 194 200 206 210 212 214 217 218 218 217 218 217 219 221 191 184 183 184 180 184 194 198 207 216 210 208 203 198 198 200 197 201 200 195 196 169 181 184 188 202 203 206 209 211 204 189 160 155 132 96 98 107 120 130 137 131 131 138 142 130 183 208 239 253 231 247 253 278
197 197 194 186 179 184 189 190 189 190 195 199 199 200 201 201 202 205 210 210 209 210 212 217 218 217 220 220 215 216 218 196 180 181 183 181 187 195 196 207 212 218 209 208 203 199 196 198 198 200 198 184 168 178 180 185 199 201 204 205 209 207 192 162 162 158 166 168 158 143 133 139 156 171 154 152 166 204 224 234 212 215 243 278 293
200 195 186 183 185 190 193 192 191 194 199 201 199 202 199 200 200 201 207 212 214 217 216 219 218 218 218 216 211 213 217 204 177 183 182 181 187 193 197 205 218 218 214 211 214 195 196 199 197 199 198 176 174 180 182 187 196 201 201 198 201 197 173 165 167 166 166 171 161 164 163 165 168 172 169 170 187 207 209 208 209 210 229 254 266
159 168 171 188 194 191 191 193 196 200 198 198 199 200 201 203 202 206 215 214 215 216 217 220 220 221 218 216 218 217 215 206 177 183 181 181 187 192 200 201 206 208 213 208 210 198 206 203 204 190 190 182 178 182 182 189 197 199 193 192 194 172 153 163 161 166 165 161 159 165 164 171 178 183 181 181 185 183 194 198 205 205 233 256 278
173 177 184 193 197 193 195 198 198 201 198 196 199 206 209 206 205 204 210 213 218 221 222 222 222 222 222 219 219 220 213 210 174 182 181 184 186 193 201 201 201 197 204 211 203 204 201 204 219 182 184 180 182 181 184 186 193 198 191 180 139 134 157 162 158 167 167 166 169 174 174 179 180 181 177 180 184 178 186 188 202 222 219 248 260
181 185 187 192 194 193 193 193 193 195 194 195 200 204 200 202 205 203 209 215 218 218 219 221 224 225 223 219 216 217 214 202 180 177 184 185 189 194 200 203 189 198 199 207 207 209 217 212 210 171 179 180 184 186 184 185 181 193 163 142 147 153 154 161 158 172 180 182 178 175 176 176 175 173 179 182 182 177 188 197 197 209 224 235 246
186 192 194 197 199 200 199 197 196 198 196 197 202 203 201 202 200 200 199 204 213 216 217 215 220 223 222 220 220 219 213 199 182 180 182 187 189 192 199 205 189 199 203 203 191 196 198 196 175 161 176 183 188 189 183 169 179 165 146 154 153 156 162 156 163 178 180 180 176 176 176 176 174 176 180 183 177 170 192 191 206 212 216 229 221
193 202 203 205 204 207 203 200 201 204 203 199 203 204 206 199 202 205 203 211 217 218 220 215 212 213 217 221 221 217 208 203 182 183 179 187 190 191 197 203 201 193 199 207 188 186 179 170 154 165 175 183 192 184 171 174 164 147 152 151 155 162 163 166 173 180 180 179 181 178 175 174 177 176 170 163 144 150 182 196 198 200 199 213 226
205 208 209 207 205 204 209 209 208 207 206 206 208 208 208 209 213 214 214 214 216 221 224 221 220 213 211 212 213 212 210 214 179 180 184 188 190 194 198 200 200 195 196 199 187 167 158 157 156 163 172 176 162 169 187 178 154 151 152 157 164 167 168 171 175 180 184 180 179 178 174 166 171 163 146 150 167 187 190 187 184 188 191 203 232
198 216 224 223 214 209 210 212 211 211 209 211 211 209 208 211 217 216 216 219 219 222 224 222 220 221 218 221 217 209 197 188 194 185 181 179 187 197 201 203 198 189 195 167 140 135 148 150 156 160 153 162 170 170 164 147 138 145 154 167 172 173 173 173 174 180 180 178 175 172 165 161 151 145 163 172 186 184 186 188 207 191 191 189 249
36 265 232 228 224 225 228 230 229 225 216 214 218 217 214 212 213 216 216 219 220 222 225 226 227 227 225 224 220 191 198 198 193 188 183 181 186 189 191 190 183 183 178 148 142 128 122 114 114 113 126 138 146 155 154 158 157 161 168 174 179 179 163 152 165 181 177 175 162 151 148 149 165 176 177 187 193 176 179 193 204 191 199 193 250
44 41 25 244 222 215 232 228 229 235 240 233 225 222 215 212 217 221 218 213 216 220 223 224 223 222 222 219 206 203 208 203 201 189 179 184 185 176 169 181 177 177 168 148 133 128 126 133 124 130 134 147 156 163 162 161 165 169 168 173 175 160 161 172 181 178 168 160 158 160 162 172 177 179 183 187 183 174 173 176 182 191 184 218 260
55 48 40 35 23 360 294 250 241 240 239 239 240 237 236 240 239 230 229 219 223 223 222 226 223 216 219 223 213 199 196 205 197 169 180 188 190 183 178 174 180 174 154 148 142 141 143 142 155 160 159 159 163 166 165 167 163 164 164 168 173 171 171 176 183 177 167 170 162 170 173 178 179 181 189 194 175 175 167 182 175 180 200 227 250
80 69 59 50 34 22 13 352 333 303 275 264 258 258 256 234 234 240 247 250 235 231 232 237 240 231 214 216 211 210 211 193 163 183 185 178 180 176 171 168 165 159 152 145 148 157 161 162 159 155 156 160 166 168 167 169 170 168 168 170 178 171 172 177 180 170 165 166 170 176 177 182 186 184 191 195 188 176 163 185 183 186 216 238 251
81 76 74 79 73 54 27 359 327 317 309 305 288 281 268 264 256 233 236 239 238 238 237 234 232 230 226 219 211 202 198 175 169 170 172 170 168 169 170 168 166 162 166 159 159 162 162 161 155 154 153 160 166 165 166 171 174 174 169 171 176 181 179 182 169 166 166 170 174 179 181 186 189 185 192 192 188 183 177 180 194 204 215 225 242
76 73 68 60 58 44 16 6 325 298 290 269 272 273 283 289 279 280 257 224 230 236 244 249 246 239 228 222 211 197 186 173 170 171 170 175 172 172 170 167 163 163 159 160 159 157 161 163 160 161 161 161 158 163 169 173 178 178 175 178 177 177 182 166 152 165 171 178 179 184 184 185 187 183 189 182 185 193 185 196 195 202 213 232 241
76 71 60 52 43 30 17 349 320 312 306 305 303 296 285 272 270 270 274 277 264 251 246 246 246 241 238 226 212 198 175 172 174 174 175 174 171 164 155 153 149 157 157 153 147 150 156 165 161 161 162 159 159 166 172 177 180 183 182 178 168 165 162 145 158 169 176 173 187 183 182 183 179 190 189 185 186 188 188 198 196 198 212 228 252
67 67 57 47 45 36 22 358 347 335 325 317 309 304 297 295 294 292 294 293 291 283 278 260 238 227 228 228 220 193 176 178 174 172 171 170 164 156 144 139 143 159 160 159 160 156 155 163 165 167 165 162 169 169 173 178 180 179 168 162 159 156 153 160 173 174 178 177 185 183 177 180 180 192 183 179 177 187 197 200 200 200 214 236 251
56 54 51 47 44 38 38 31 24 353 333 319 316 305 303 307 306 310 322 321 311 304 293 270 258 236 226 222 207 192 181 177 173 173 173 159 148 142 143 148 153 159 156 152 159 157 150 153 156 166 168 170 168 176 178 171 169 159 157 157 154 156 161 165 168 170 175 179 180 173 164 173 179 181 181 177 180 190 192 198 199 198 211 234 251
41 40 39 32 28 31 38 46 46 38 16 357 343 336 337 334 340 359 300 246 246 260 265 273 264 245 223 231 224 197 183 176 175 168 154 150 154 156 158 159 161 157 160 161 161 157 160 163 162 161 166 165 173 168 159 152 152 147 151 157 154 157 163 168 165 168 170 176 170 165 172 171 172 179 182 179 183 189 192 190 198 198 216 215 235
37 25 33 13 11 13 34 52 63 79 45 27 11 10 14 7 282 232 244 266 268 286 307 320 315 284 267 256 200 213 195 174 159 149 149 149 153 156 155 158 155 153 161 164 162 162 162 159 157 161 161 163 156 150 148 145 148 148 150 148 150 156 141 152 152 163 169 172 166 163 170 167 171 177 184 188 187 188 189 190 201 194 194 186 220
44 30 356 347 349 348 24 37 51 44 47 32 28 29 30 34 33 15 9 9 19 7 26 24 9 31 41 50 25 27 318 188 160 145 150 157 156 151 147 142 138 141 150 157 151 151 151 152 147 137 146 150 145 143 145 143 144 147 149 151 152 147 154 165 161 168 170 171 164 164 167 168 175 180 188 193 191 192 191 192 197 205 215 218 224
16 3 1 325 316 349 5 33 39 44 45 48 52 57 66 54 37 19 12 15 24 14 13 104 74 31 57 236 254 166 124 284 170 154 165 159 148 140 130 124 125 141 151 149 152 155 150 148 145 141 145 144 144 144 140 141 144 143 146 152 155 158 165 165 164 167 170 167 166 165 168 172 178 182 190 199 196 190 195 198 200 205 213 226 240
14 1 338 348 336 328 9 27 41 40 51 62 63 66 60 52 39 31 22 12 23 28 13 18 52 47 20 350 106 88 59 255 219 135 128 88 108 116 120 123 129 138 144 147 151 150 146 138 143 141 142 142 142 140 138 139 140 146 154 155 161 160 163 162 163 166 165 165 169 170 173 178 179 184 193 196 191 202 198 205 204 205 204 214 233
4 357 355 348 340 343 354 30 43 52 62 64 58 44 28 30 34 50 35 22 31 42 41 17 24 55 138 110 106 112 112 77 6 47 72 70 84 103 109 116 125 136 147 152 149 146 141 138 137 135 140 142 144 144 141 144 148 154 158 164 163 160 161 162 164 165 167 172 172 176 180 184 182 193 198 190 192 202 204 205 211 209 215 215 226
14 10 4 358 354 353 6 14 20 39 55 67 70 48 38 31 38 40 63 50 33 28 25 34 25 38 44 29 78 82 86 92 96 75 87 95 89 83 94 112 125 138 144 145 142 140 143 137 134 142 145 147 149 150 154 153 156 158 162 161 161 160 162 161 162 165 171 173 178 179 183 177 180 195 197 198 211 205 209 203 205 210 208 219 233
25 22 25 18 10 5 9 23 29 34 39 53 58 57 48 44 34 34 59 79 65 36 35 25 16 21 22 27 27 62 90 100 104 99 86 85 93 100 105 111 118 120 126 131 135 138 143 130 125 128 130 138 141 144 150 152 157 161 159 159 159 162 163 162 165 170 175 179 180 180 186 189 191 197 199 203 209 210 208 203 204 206 213 214 224
32 28 29 33 27 22 23 23 25 29 32 45 48 45 46 44 41 41 55 84 70 74 52 33 25 12 15 26 45 60 65 69 89 92 92 94 95 97 98 104 114 123 126 130 131 137 135 124 129 133 138 144 146 150 151 155 160 160 161 161 161 163 166 166 170 171 176 181 182 185 188 192 195 205 207 205 210 212 216 204 203 197 200 217 225
32 31 30 29 30 21 19 23 26 28 33 35 38 42 42 41 44 38 43 37 75 87 88 75 46 27 35 48 51 54 64 74 78 84 94 96 100 101 110 117 114 119 125 127 132 131 133 137 140 147 150 150 154 158 156 155 159 159 161 163 161 164 166 167 166 169 178 184 185 187 192 196 203 209 208 209 208 213 217 203 201 194 208 213 223
37 35 34 35 34 31 27 24 26 25 32 38 42 44 51 49 43 58 55 52 45 47 67 85 85 59 47 43 39 51 81 94 73 58 72 80 91 101 107 120 129 120 112 128 136 142 141 143 149 149 152 153 156 157 159 161 164 164 163 165 167 162 164 162 164 174 179 184 187 195 195 203 202 202 182 203 215 205 204 199 198 195 205 218 232
39 39 38 36 37 36 34 31 29 27 29 32 35 45 54 56 63 56 69 77 68 68 55 57 80 95 85 70 69 84 84 64 110 112 110 118 131 144 140 136 128 128 125 130 142 145 148 150 152 153 151 152 156 158 158 158 161 159 163 163 167 166 141 141 154 161 167 168 177 190 192 202 203 200 196 196 209 198 194 198 196 201 208 213 225
31 28 29 30 32 33 32 34 36 34 31 28 33 37 37 50 47 47 50 57 83 105 117 89 42 37 51 65 56 34 82 107 117 123 124 137 145 151 132 131 127 132 135 140 145 149 147 151 153 156 154 154 156 157 158 161 159 163 160 168 141 130 139 152 164 154 143 153 163 177 184 193 192 188 186 192 196 192 195 199 200 205 207 219 221
32 28 23 20 19 19 16 23 29 37 37 41 40 40 44 47 47 47 43 44 44 43 53 75 97 77 56 93 72 84 116 124 121 120 133 133 122 124 115 109 116 128 133 138 142 142 144 144 148 151 153 155 156 161 162 162 165 161 171 152 139 147 149 150 136 131 150 170 158 170 174 180 179 182 184 184 182 185 192 197 202 208 218 223 217
33 32 30 27 22 17 17 12 14 18 24 28 30 33 30 39 50 39 32 37 48 34 49 55 47 104 141 140 140 123 115 105 105 102 86 98 112 99 98 95 94 103 121 128 131 134 139 148 155 157 158 157 160 161 166 164 171 172 146 137 147 147 147 153 153 161 156 139 152 154 169 171 173 171 172 174 182 191 197 198 203 211 218 212 212